STARLINK-3802, 52286

Orbit data source: Space-Track

STARLINK-3802, 52286 is a payload satellite owned by SpaceX/Seattle (US) in LEO that was launched on Thu, 21 Apr 2022 UTC via an FALCON 9 launch vehicle from the Air Force Eastern Test Range (AFETR). Payload-class satellites include a variety of spacecraft equipped with specific instruments for various scientific and technological missions. These include communications satellites like Starlink; space stations such as the ISS; scientific satellites like the Hubble; Earth observation satellites from companies like Planet Labs, Umbra, and HawkEye 360; GPS; miniature CubeSats for education and research; and military/defense satellites.

Loading next visibility...
Identifier
52286, 2022-041AB
Orbit
LEO
Country
Flag of USUS
Related business
Manufacturer
SpaceX/Seattle
Mission
Operational Commercial Communications
Bus & Motor
STARLINK, Unknown motor
Mass
297 kg wet, ~275 kg dry
Launch date (UTC)
2022-04-21 (4 years ago)
Launch vehicle
FALCON 9
Launch site
Air Force Eastern Test Range (AFETR)
Object type
Payload
Rocket body
Debris
Shape & HBR
Box + 1 Pan, 10.1 m
Radar Cross Section
11.087 m², Large (>1 m²)

Expand to show TLE details & history
Last TLE update: 9 hours ago

TLE from 9 hours ago
0 STARLINK-3802
1 52286U 22041AB  26236.88074291  .00000165  00000-0  16028-4 0  9993
2 52286  53.1605  55.8190 0001099  89.4114 270.7015 15.34385981240004
Epoch: 2026-08-24T21:08Z
TLE epoch observation values (Epoch: 2026-08-24T21:08:16.187Z)
Latitude
0.00002°
Longitude
125.59548°
Altitude
463.637 km
Speed
7.636 km/s
True Right ascension
03h 43m 16s
True Declination
0° 00' 00"
Sunlit
Object was in daylight at epoch
Visualization orbit readout
Latitude
Unknown
Longitude
Unknown
Altitude
Unknown
Speed
Unknown
Apparent Right ascension
Unknown
Apparent Declination
Unknown
Sunlit
N/A
Visualization observer readout
Local Sidereal Time
21:10:36
Azimuth
Unknown
Elevation
Unknown
Doppler factor
Unknown
Orbital elements
Apogee altitude
463.754 km
Perigee altitude
462.25 km
Semi-major axis
6,841.139 km
Eccentricity
0.00011
Inclination
53.1605°
RAAN
55.819°
Arg. of periapsis
89.4114°
True anomaly
270.68891°
Mean anomaly
270.7015°
Eccentric anomaly
270.6952°
Mean motion
3.83575 °/min
Orbital period
93.85 mins
BSTAR
0.000016028
Loading maneuver chart data...
Computing Atmospheric mass density...
Loading historical data...
Loading historical data...
Loading historical data...
Loading historical data...
Loading historical data...
Loading historical data...
Loading historical data...

Documentation

Showing up to 5 results
|